Location: Epalinges
(46.5518°N, 6.6683°E)
Time: 16:27:20
(UTC+00:00)

IDEFIX/ARIANE 42P - Pass Details

Date: 20 June 2021
Orbit: 784 x 803 km, 98.4° (Epoch: 04 August)

Event Time Altitude Azimuth Distance (km) Brightness Sun altitude
Rises 01:39:41 0° 20° (NNE) 3,317 7.6 -14.5°
Reaches altitude 10° 01:42:12 10° 29° (NNE) 2,379 6.5 -14.3°
Maximum altitude 01:47:05 38° 97° (E) 1,192 3.7 -13.9°
Drops below altitude 10° 01:51:55 10° 165° (SSE) 2,350 4.6 -13.5°
Enters shadow 01:52:19 - 167° (SSE) 2,495 4.7 -13.4°
